Date,TemperatureHighF,TemperatureAvgF,TemperatureLowF,DewpointHighF,DewpointAvgF,DewpointLowF,HumidityHigh,HumidityAvg,HumidityLow,PressureMaxIn,PressureMinIn,WindSpeedMaxMPH,WindSpeedAvgMPH,GustSpeedMaxMPH,PrecipitationSumIn
2013-5-1,57.6,39.4,27.5,25.8,19.8,15.0,69,48,24,30.43,30.13,7,1,7,0.00
2013-5-2,69.8,50.7,32.4,29.6,23.1,18.3,67,38,17,30.47,30.12,9,3,9,0.00
2013-5-3,69.3,55.1,39.2,42.4,28.4,17.3,76,38,21,30.12,29.99,11,3,11,0.00
2013-5-4,62.8,52.9,44.6,45.8,40.2,31.6,80,64,43,30.14,30.07,10,2,10,0.00
2013-5-5,74.3,54.7,33.8,42.0,33.8,27.0,80,50,24,30.11,29.91,12,1,12,0.00
2013-5-6,81.5,60.2,36.9,42.5,32.9,24.4,66,39,19,29.95,29.77,8,1,8,0.00
2013-5-7,83.9,64.2,41.6,42.6,33.2,27.3,65,36,16,29.86,29.72,10,2,10,0.00
2013-5-8,78.3,62.3,44.3,43.8,38.2,30.6,64,42,28,30.04,29.86,10,2,10,0.00
2013-5-9,79.7,59.9,41.8,47.5,39.1,31.6,72,49,24,30.05,29.95,9,1,9,0.00
2013-5-10,73.8,60.9,46.3,45.8,36.4,23.3,72,44,24,30.27,30.00,16,3,16,0.00
2013-5-11,83.3,61.5,36.7,40.6,31.9,21.5,56,35,21,30.27,29.94,8,1,8,0.00
2013-5-12,93.6,71.9,54.9,45.5,37.5,27.9,48,32,10,29.97,29.80,11,2,11,0.00
2013-5-13,97.0,77.4,59.4,48.6,38.8,30.7,49,29,11,29.90,29.60,13,2,13,0.00
2013-5-14,85.5,70.2,53.8,47.0,36.8,25.5,66,33,16,29.86,29.62,13,2,13,0.00
2013-5-15,81.4,65.8,45.5,41.5,31.6,23.0,43,29,19,29.94,29.73,8,1,8,0.00
2013-5-16,74.9,61.3,53.5,50.8,46.7,41.3,82,60,37,29.80,29.69,9,2,9,0.00
2013-5-17,63.0,56.5,52.4,56.3,51.4,48.0,88,83,71,29.79,29.74,5,0,5,0.00
2013-5-18,60.5,55.5,52.4,55.6,51.9,49.4,91,88,78,29.83,29.78,8,1,8,0.00
2013-5-19,55.1,53.0,51.1,52.4,50.3,48.4,93,91,88,29.94,29.81,9,1,9,0.00
2013-5-20,66.6,56.4,48.8,51.7,45.1,29.8,93,69,26,30.04,29.93,17,3,17,0.00
2013-5-21,72.5,57.1,42.7,47.9,41.6,37.5,87,60,32,30.01,29.82,12,2,12,0.00
2013-5-22,72.0,56.8,45.5,51.8,44.9,39.6,83,66,45,29.88,29.76,14,4,14,0.00
2013-5-23,78.1,61.8,53.5,54.2,48.6,43.8,84,63,41,29.83,29.59,12,3,12,0.00
2013-5-24,76.3,61.7,51.3,51.3,43.0,34.0,86,56,23,29.84,29.62,10,2,10,0.00
2013-5-25,81.0,61.6,43.7,49.2,41.7,35.1,76,51,29,29.83,29.72,9,2,9,0.00
2013-5-26,80.3,62.0,49.7,58.5,49.2,39.5,80,64,42,29.88,29.70,8,1,8,0.00
2013-5-27,70.0,58.0,50.6,55.0,49.3,43.9,86,74,49,29.80,29.68,12,1,12,0.00
2013-5-28,75.4,59.2,46.4,54.5,47.1,42.2,88,67,35,29.69,29.57,9,1,9,0.00
2013-5-29,59.6,54.3,52.6,53.8,50.7,48.5,92,88,68,29.65,29.56,6,1,6,0.00
2013-5-30,54.4,52.0,50.4,50.0,48.3,45.7,92,88,76,29.74,29.54,11,3,11,0.00
2013-5-31,58.0,52.0,48.8,45.9,44.0,41.3,85,75,62,30.11,29.72,12,4,12,0.00